Regional Weather Roundup
Issued by NWS

Home | Current Version | Previous Version | Graphics & Text | Print | Product List | Glossary On
Versions: 1 2 3 4 5 6 7 8 9 10 11 12 13 14 15 16 17 18 19 20 21 22 23 24 25 26 27 28 29 30 31 32 33 34 35 36 37 38 39 40 41 42 43 44 45 46 47 48 49 50
000
ASUS44 KMEG 250800
RWRTN
TENNESSEE HOURLY STATE WEATHER ROUNDUP
NATIONAL WEATHER SERVICE MEMPHIS TN
300 AM CDT FRI APR 25 2014

TNZ002-004-019-021-049-052-054-088>092-250900-
WEST TENNESSEE

CITY           SKY/WX    TMP DP  RH WIND       PRES   REMARKS
MEMPHIS INTL   CLOUDY    62  55  77 W10G18    29.80R
NWS MEMPHIS      N/A     62 N/A N/A MISG        N/A
JACKSON        MOCLDY    63  56  78 W20G26    29.74R
DYERSBURG      CLOUDY    61  48  63 W10G21    29.77R
UNION CITY     CLOUDY    59  55  88 NW14      29.72R
LEXINGTON      CLOUDY    64  61  88 SW12      29.71R
$$

TNZ008-025-027-028-033-062-065-066-250900-
NORTH MIDDLE TENNESSEE

CITY           SKY/WX    TMP DP  RH WIND       PRES   REMARKS
NASHVILLE      CLOUDY    63  61  93 S7        29.70S
CLARKSVILLE    CLOUDY    64  61  90 SW8       29.67R
COOKEVILLE     MOCLDY    61  59  94 S7        29.75F
CROSSVILLE     CLOUDY    64  50  60 S6        29.79F
$$

TNZ061-075-076-078-094-096-097-250900-
SOUTH MIDDLE TENNESSEE

CITY           SKY/WX    TMP DP  RH WIND       PRES   REMARKS
TULLAHOMA      PTCLDY    63  59  88 S12       29.76F
WINCHESTER     CLOUDY    64  59  82 S5        29.78F
MCMINNVILLE    CLOUDY    64  63  94 S8        29.75F
COLUMBIA       CLOUDY    64  64 100 S6        29.70F
$$

TNZ017-018-042-046-047-250900-
NORTHEAST TENNESSEE

CITY           SKY/WX    TMP DP  RH WIND       PRES   REMARKS
TRI CITIES     CLOUDY    58  39  49 CALM      29.85F
ELIZABETHTON   SUNNY     55  39  54 CALM      29.87S
$$

TNZ012-013-036-069-073-074-250900-
CENTRAL EAST TENNESSEE

CITY           SKY/WX    TMP DP  RH WIND       PRES   REMARKS
KNOXVILLE      CLOUDY    69  46  43 S12       29.76F
OAK RIDGE      CLOUDY    64  50  60 CALM      29.78F
$$

TNZ083-085-099-250900-
SOUTHEAST TENNESSEE

CITY           SKY/WX    TMP DP  RH WIND       PRES   REMARKS
CHATTANOOGA    CLOUDY    66  55  67 S6        29.79S
$$

SKY/WX REPORTED AS FAIR MEANS FEW OR NO CLOUDS BELOW
12 THOUSAND FEET.




USA.gov is the U.S. government's official web portal to all federal, state and local government web resources and services.